Terminal Aerodrome Forecast
Issued by NWS Wakefield, VA

Home | Current Version | Previous Version | Text Only | Print | Product List | Glossary On
Versions: 1 2 3 4 5 6 7 8 9 10 11 12 13 14 15 16 17 18 19 20 21 22
000
FTUS41 KAKQ 281700
TAFSBY
TAF
KSBY 281736Z 2818/2918 32013G21KT P6SM SCT050
     FM282100 31009KT P6SM SCT050
     FM290000 VRB03KT P6SM SCT200
     FM290400 00000KT P6SM BKN100
     FM291500 19005KT P6SM SCT200=

USA.gov is the U.S. government's official web portal to all federal, state and local government web resources and services.